Location: Pasadena
(34.1478°N, 118.1436°W)
Time: 22:37:22
(UTC-08:00)

ISS - Pass Details

Date: 29 October 2013
Orbit: 418 x 419 km, 51.6° (Epoch: 17 January)

Event Time Altitude Azimuth Distance (km) Brightness Sun altitude
Rises 19:58:45 0° 296° (WNW) 2,374 1.1 -24.6°
Reaches altitude 10° 20:01:18 10° 277° (W) 1,496 0.1 -25.2°
Maximum altitude 20:03:38 18° 232° (SW) 1,104 -1.1 -25.7°
Enters shadow 20:04:18 17° 216° (SW) 1,139 -1.2 -25.8°
